Hourly Data Report for September 17, 2017

All times are specified in Local Standard Time (LST). Add 1 hour to adjust for Daylight Saving Time where and when it is observed.

GRISE FIORD CLIMATE
NUNAVUT

76°25'22.040" N
82°54'08.020" W
44.50 m
2402351
71971
NGC

Download Data

Hourly Data (September 2017)
Hourly Data Report for September 17, 2017
Temp Definition
°C
Dew Point Temp Definition
°C
Rel Hum Definition
%
Wind Dir Definition
10's deg

Wind Spd Definition
km/h
Visibility Definition
km
Stn Press Definition
kPa
Hmdx Definition


Wind Chill Definition


Weather Definition


TIME
00:00 -4.5 -7.4 80 25 24   100.48   -12 LegendNANA
01:00 -6.7 -9.5 81 8 4   100.45   -9 LegendNANA
02:00 -6.6 -10.2 76 5 20   100.44   -14 LegendNANA
03:00 -6.5 -10.3 74 4 13   100.45   -12 LegendNANA
04:00 -6.4 -10.6 72 4 10   100.46   -11 LegendNANA
05:00 -6.3 -10.4 73 5 11   100.44   -11 LegendNANA
06:00 -7.8 -11.5 75 8 5   100.47   -10 LegendNANA
07:00 -7.0 -11.2 72 4 8   100.47   -11 LegendNANA
08:00 -6.8 -11.0 72 4 11   100.45   -12 LegendNANA
09:00 -5.9 -9.9 73 5 11   100.44   -11 LegendNANA
10:00 -6.4 -11.5 67 8 2   100.44   -7 LegendNANA
11:00 -5.6 -10.4 69 4 6   100.43   -8 LegendNANA
12:00 -5.2 -10.3 68 3 3   100.43   -7 LegendNANA
13:00 -3.4 -10.6 57   0   100.45     LegendNANA
14:00 -3.3 -10.0 60 20 2   100.48   -4 LegendNANA
15:00 -4.0 -9.8 64 11 3   100.49   -5 LegendNANA
16:00 -3.9 -10.1 62 4 4   100.50   -6 LegendNANA
17:00 -3.7 -10.6 58 0 1   100.49   -4 LegendNANA
18:00 -4.8 -9.6 69 4 7   100.50   -8 LegendNANA
19:00 -5.0 -8.8 74 3 7   100.49   -8 LegendNANA
20:00 -5.6 -9.8 72 5 7   100.48   -9 LegendNANA
21:00 -5.9 -10.3 71 36 7   100.51   -9 LegendNANA
22:00 -5.2 -10.1 68 27 3   100.50   -7 LegendNANA
23:00 -6.8 -11.4 70 6 4   100.50   -9 LegendNANA

Notes on Data Quality.

Legend

  • E = Estimated
  • M = Missing
  • NA = Not Available
  • ‡ = Partner data that is not subject to review by the National Climate Archives
Date modified: